Wind_Speed
28 28 28 28 28 29 30 31 34 33 33 33 34 35 35 35 36 36 36 36 37 37 37 38 38 39 40 41 42 42 43 43 43 44 45 46 47 48 49 50 50 49 48 48
29 29 29 29 29 30 31 32 33 33 33 32 33 34 34 33 34 34 35 35 36 37 37 37 38 39 39 40 41 41 42 42 43 44 44 45 46 46 47 48 49 49 48 48
31 30 31 30 29 30 31 31 33 33 34 33 33 34 34 34 34 34 35 34 35 35 36 36 37 38 39 40 40 40 41 42 42 43 44 45 45 46 46 46 47 48 48 48
33 33 33 31 31 31 32 32 33 34 34 34 34 34 34 35 35 35 35 35 34 35 35 35 36 36 37 38 39 40 40 40 41 42 43 43 44 45 45 45 46 47 48 48
33 34 34 32 32 32 33 32 32 33 34 34 34 34 34 34 35 36 36 35 35 35 35 35 35 36 37 38 38 38 39 40 40 41 42 43 43 43 44 45 45 46 47 47
32 34 35 33 32 32 33 34 33 34 34 34 34 34 33 34 34 34 35 35 35 34 35 35 36 37 37 37 38 38 39 39 39 41 42 43 43 43 43 43 43 44 45 46
32 34 34 33 33 34 35 35 35 35 34 34 34 33 33 33 32 32 33 34 34 34 35 35 36 37 37 38 38 38 39 39 39 39 40 41 42 43 43 43 43 44 45 45
33 34 34 34 34 34 34 35 35 35 35 34 34 33 33 33 32 32 32 33 34 34 35 35 35 35 36 37 37 37 38 38 38 39 40 40 42 42 42 42 42 43 43 44
34 34 34 33 33 34 34 34 34 34 34 34 34 33 33 33 32 31 31 33 34 34 34 34 34 34 35 36 36 37 37 38 39 39 40 40 41 41 41 41 42 42 42 43
34 33 33 34 34 35 35 35 35 34 34 33 33 33 33 32 32 32 32 33 33 33 33 33 34 33 34 34 35 36 37 38 39 39 40 41 41 41 41 42 41 41 42 42
34 33 34 34 35 35 35 35 34 34 33 33 33 33 32 33 33 32 32 32 32 32 33 33 33 33 33 33 34 35 36 37 38 39 40 40 41 42 42 42 41 41 41 41
34 34 34 34 35 35 34 34 33 33 33 33 33 33 32 33 33 33 32 32 31 31 32 32 32 33 33 34 34 34 35 35 36 37 38 38 39 40 40 41 41 41 41 41
34 34 34 35 35 35 34 34 34 33 33 33 32 32 32 33 33 32 32 32 32 31 31 31 31 31 32 32 32 32 32 33 34 34 35 36 36 37 38 39 40 41 41 41
35 35 35 34 34 35 35 34 34 33 33 32 32 32 32 32 32 32 31 31 31 30 30 30 30 30 30 30 29 29 30 30 30 31 32 33 34 35 36 37 38 39 40 40
34 35 35 34 34 34 34 33 32 32 32 32 31 31 31 31 31 31 30 30 29 28 28 27 27 28 28 28 29 29 29 29 29 29 30 30 31 32 33 34 36 37 37 38
33 33 33 33 33 33 32 31 31 31 31 31 31 30 30 30 30 29 28 28 27 27 26 25 26 26 26 27 27 27 28 28 29 29 29 30 31 31 32 33 34 36 37 37
32 32 32 32 32 31 31 31 31 31 31 30 30 29 29 28 28 29 28 27 27 26 26 26 26 26 26 26 27 27 27 28 28 29 29 30 31 32 32 32 33 34 35 36
31 31 30 30 30 30 30 29 29 29 29 28 28 28 28 28 28 28 28 27 27 26 26 26 26 26 26 27 27 27 27 28 28 29 30 30 31 32 32 32 33 34 34 36
30 29 29 28 28 28 28 28 28 27 27 27 27 27 27 28 28 28 28 27 27 26 26 27 27 26 27 27 27 27 28 28 28 29 30 30 31 31 31 31 32 32 33 33
30 29 28 28 28 28 27 27 27 26 27 27 27 27 27 28 27 27 27 27 27 27 27 27 27 27 28 28 28 28 28 28 28 28 29 30 30 30 30 30 31 31 32 32
29 28 28 28 28 28 27 26 26 26 26 26 26 26 26 26 26 26 27 27 27 28 28 28 28 28 28 28 28 28 28 28 28 28 28 28 28 29 29 29 30 30 31 32
29 29 29 29 28 28 27 26 26 26 26 26 26 26 26 26 26 27 27 27 28 28 29 29 29 28 28 28 28 27 27 27 27 27 28 28 28 28 28 29 29 30 30 31
29 29 28 28 28 27 27 26 27 27 27 26 26 27 27 27 27 28 28 28 28 28 28 29 29 28 28 28 28 28 28 28 28 28 28 28 28 28 28 28 29 29 29 30
28 28 28 28 27 27 27 27 27 28 28 27 28 28 28 28 29 29 29 28 28 28 28 28 28 28 28 28 28 28 28 28 28 28 28 29 29 29 29 29 29 29 29 29
28 27 27 27 27 27 27 28 28 29 29 29 29 29 29 29 29 29 29 28 28 28 28 28 28 28 28 28 28 28 28 28 29 29 29 29 30 30 30 30 30 30 30 30
27 27 26 26 26 27 27 28 29 29 30 30 30 30 30 29 29 29 28 28 28 28 28 28 28 28 28 28 28 28 29 29 29 29 30 30 30 30 30 30 30 30 30 30
26 26 26 26 26 27 28 29 29 29 29 29 29 29 29 29 28 28 28 28 28 28 28 28 28 28 28 28 28 29 29 29 30 30 30 30 30 30 30 30 30 30 30 30
Wind_Direction
280 280 280 280 281 281 281 282 282 284 284 285 284 285 283 281 279 278 276 275 272 269 267 265 263 262 260 259 258 258 257 257 257 257 257 257 256 255 255 256 255 255 256 256
281 280 278 279 281 283 282 284 286 285 284 286 285 285 284 282 280 279 277 275 273 269 267 265 263 262 261 260 259 258 258 257 257 257 257 256 256 256 256 255 255 255 256 257
282 280 280 280 284 283 284 286 286 287 287 286 285 285 284 282 280 279 277 276 273 270 269 268 266 264 262 261 261 260 260 258 258 257 257 256 256 257 256 256 256 255 256 256
284 282 281 285 285 284 284 285 286 286 287 286 286 286 286 283 281 278 278 276 273 270 269 268 267 265 263 262 261 261 261 260 259 258 257 256 256 256 256 257 257 257 257 257
285 283 283 285 287 286 286 286 287 286 286 287 287 286 286 285 282 280 277 276 274 272 271 270 269 267 265 263 262 261 261 261 260 259 259 257 258 258 258 258 259 259 259 259
286 285 285 287 286 285 285 286 287 287 287 287 286 285 285 286 284 281 278 277 275 274 272 271 270 268 267 265 263 262 261 261 260 260 260 259 259 259 259 260 260 259 260 260
286 284 285 287 286 286 285 286 286 285 286 286 286 286 286 285 284 280 279 278 277 275 273 273 272 269 267 266 263 262 262 262 261 261 260 260 259 260 260 261 261 261 261 261
286 285 287 287 286 286 287 287 286 284 284 285 286 286 286 286 285 283 280 279 278 277 275 274 273 272 269 266 264 263 262 262 262 262 261 261 259 259 261 262 263 262 262 261
287 287 287 286 286 286 286 286 286 284 284 284 285 285 286 287 286 285 283 281 279 278 276 274 274 273 271 268 266 265 264 263 263 263 263 262 261 260 260 261 263 263 263 262
286 286 285 285 286 286 287 287 286 285 284 284 284 285 286 285 285 286 286 284 281 278 277 275 275 275 273 270 268 267 266 265 265 264 263 262 260 260 260 260 261 262 263 263
286 286 285 285 286 286 286 286 285 284 284 283 283 285 285 285 284 285 285 284 282 279 277 275 274 275 274 273 271 269 268 267 267 266 265 263 262 260 260 261 261 262 262 263
286 286 285 286 286 286 285 284 283 283 283 283 283 284 285 285 285 285 284 283 282 279 278 276 276 276 275 274 273 271 268 268 268 267 265 263 262 261 261 262 262 262 262 263
286 286 286 286 286 285 285 284 282 282 283 283 283 283 284 285 285 285 284 282 281 280 278 278 279 278 276 275 275 273 271 269 268 267 265 263 263 263 263 263 263 264 264 264
286 286 287 288 287 287 286 285 283 282 283 283 283 284 284 285 286 286 284 282 282 281 281 280 279 278 277 275 274 273 272 271 269 268 268 266 265 265 265 265 264 265 265 265
288 288 288 289 288 287 287 286 284 284 284 284 284 284 285 286 287 287 284 283 283 283 284 281 280 279 277 274 273 273 273 273 272 272 271 270 269 269 268 268 266 266 266 265
288 289 289 289 288 288 287 285 284 283 283 283 283 284 284 285 286 285 284 283 283 283 283 282 281 280 279 277 274 273 274 275 274 273 272 272 272 272 271 270 269 268 268 268
289 290 290 289 288 288 287 285 284 284 284 284 284 284 283 283 284 284 284 282 282 282 281 282 282 280 279 278 276 275 276 276 276 275 274 275 274 274 273 272 271 270 269 269
292 291 291 290 289 289 288 286 285 285 285 284 284 284 283 282 283 284 284 282 281 281 282 282 282 280 279 278 278 277 277 276 276 276 276 276 276 276 274 274 272 271 271 270
293 292 291 290 290 289 288 287 287 286 285 284 283 283 282 282 283 284 284 283 282 282 282 282 282 280 280 280 280 280 279 278 277 277 277 277 278 277 275 275 274 273 273 272
291 291 290 290 290 290 290 290 289 287 285 284 284 284 285 285 285 284 283 283 283 283 283 282 282 281 281 282 282 281 281 280 280 280 278 278 278 277 276 274 274 274 275 275
291 290 289 290 290 290 291 290 289 287 287 286 285 285 286 286 286 286 285 283 283 283 284 284 284 283 283 282 282 282 281 281 281 281 281 280 279 278 277 276 276 276 275 275
290 289 289 289 289 288 288 289 289 289 289 288 287 287 287 287 288 288 287 286 285 284 284 285 285 284 283 282 282 282 282 282 282 282 282 281 280 279 279 278 278 277 276 275
289 289 289 289 288 287 287 287 288 289 289 289 288 288 288 288 289 290 289 288 286 285 285 285 285 284 282 281 281 281 281 282 282 282 281 281 280 280 281 281 280 280 278 277
290 289 289 288 287 286 286 287 288 288 288 288 289 290 289 290 290 291 290 289 288 287 286 285 285 284 282 281 281 282 282 282 282 282 281 280 280 281 282 282 281 281 280 279
291 291 290 288 287 286 286 287 287 288 288 288 289 290 290 290 290 291 290 289 289 288 287 286 285 284 283 282 282 282 282 282 282 282 281 281 281 281 281 281 281 281 281 280
292 292 291 289 288 288 288 289 289 289 289 289 289 290 290 290 290 290 290 290 290 289 288 287 286 285 283 283 282 282 282 282 282 282 282 282 281 281 280 280 280 280 280 280
293 292 291 290 290 291 291 292 291 291 290 290 289 289 289 289 290 290 289 289 289 289 289 288 286 285 284 283 283 283 284 283 283 283 283 283 282 281 280 280 279 280 280 280
Height
5556 5556 5554 5553 5553 5551 5549 5548 5546 5546 5544 5543 5540 5538 5535 5533 5532 5531 5530 5529 5528 5528 5528 5528 5529 5531 5532 5533 5535 5536 5538 5539 5541 5543 5544 5546 5547 5549 5552 5554 5556 5558 5560 5562
5549 5548 5546 5545 5545 5543 5542 5540 5538 5536 5536 5535 5531 5529 5526 5524 5522 5521 5520 5519 5518 5518 5518 5518 5519 5520 5521 5522 5523 5524 5526 5527 5529 5530 5531 5533 5535 5536 5538 5540 5542 5545 5547 5549
5540 5540 5537 5538 5538 5535 5533 5532 5530 5527 5528 5525 5522 5520 5518 5515 5514 5512 5511 5510 5509 5508 5508 5508 5508 5509 5510 5510 5511 5512 5514 5515 5516 5518 5519 5521 5522 5524 5526 5528 5530 5532 5534 5536
5531 5531 5528 5533 5530 5528 5525 5524 5522 5519 5517 5515 5513 5511 5509 5506 5504 5503 5501 5500 5499 5499 5498 5498 5498 5498 5498 5499 5500 5501 5502 5503 5505 5506 5507 5508 5510 5512 5513 5515 5517 5519 5521 5522
5523 5520 5519 5523 5521 5518 5516 5515 5513 5510 5508 5506 5504 5502 5500 5497 5495 5493 5492 5491 5490 5489 5488 5487 5487 5487 5487 5488 5488 5489 5490 5492 5493 5494 5495 5496 5498 5499 5501 5503 5504 5506 5507 5509
5514 5511 5510 5514 5512 5508 5507 5506 5505 5502 5499 5497 5495 5493 5493 5489 5486 5484 5482 5481 5480 5479 5478 5477 5476 5476 5476 5476 5477 5478 5479 5480 5481 5482 5483 5484 5486 5487 5489 5490 5492 5493 5494 5496
5506 5502 5501 5504 5501 5499 5498 5498 5495 5492 5490 5488 5485 5484 5482 5479 5477 5474 5473 5471 5470 5469 5468 5467 5466 5465 5465 5465 5466 5467 5468 5469 5469 5470 5471 5473 5474 5475 5477 5478 5479 5480 5482 5483
5497 5494 5496 5494 5492 5490 5488 5486 5484 5482 5480 5478 5476 5474 5472 5469 5467 5465 5463 5461 5460 5459 5458 5456 5455 5454 5454 5454 5454 5455 5456 5457 5458 5459 5459 5460 5462 5463 5464 5466 5467 5468 5469 5470
5490 5489 5486 5484 5482 5480 5478 5476 5474 5472 5470 5468 5466 5464 5462 5460 5458 5456 5454 5452 5450 5449 5448 5446 5445 5444 5443 5443 5443 5444 5445 5445 5446 5447 5447 5448 5449 5451 5452 5453 5455 5455 5456 5458
5480 5479 5477 5474 5472 5470 5468 5466 5464 5462 5460 5458 5457 5455 5453 5451 5449 5447 5444 5442 5440 5439 5438 5436 5435 5434 5433 5433 5432 5433 5433 5434 5434 5435 5435 5436 5437 5438 5440 5441 5442 5443 5444 5446
5470 5470 5467 5466 5463 5461 5459 5456 5454 5452 5450 5449 5447 5445 5443 5441 5439 5437 5435 5433 5431 5429 5428 5427 5425 5424 5423 5423 5422 5422 5422 5422 5422 5423 5423 5424 5425 5426 5427 5429 5430 5431 5432 5433
5462 5460 5458 5456 5454 5451 5449 5447 5445 5443 5441 5439 5437 5436 5434 5431 5429 5427 5425 5423 5421 5420 5418 5417 5416 5415 5413 5412 5412 5411 5411 5411 5411 5411 5411 5412 5413 5414 5414 5416 5417 5418 5419 5421
5453 5450 5448 5446 5444 5441 5439 5437 5435 5433 5431 5429 5427 5426 5424 5422 5420 5417 5415 5413 5412 5410 5408 5407 5406 5404 5403 5402 5401 5401 5400 5400 5400 5400 5400 5401 5401 5402 5403 5404 5405 5406 5407 5408
5443 5440 5438 5436 5434 5431 5429 5427 5425 5423 5421 5420 5418 5416 5414 5412 5410 5408 5406 5404 5402 5400 5399 5397 5396 5394 5393 5392 5392 5391 5390 5390 5390 5390 5390 5390 5390 5391 5392 5392 5393 5394 5394 5395
5433 5431 5429 5426 5424 5421 5419 5417 5415 5413 5411 5410 5408 5406 5404 5402 5400 5398 5396 5395 5393 5391 5389 5388 5386 5385 5384 5383 5382 5382 5381 5381 5380 5380 5380 5380 5380 5380 5380 5381 5381 5382 5382 5383
5424 5421 5419 5416 5414 5411 5409 5407 5405 5404 5402 5400 5398 5397 5395 5393 5391 5390 5388 5386 5384 5383 5381 5379 5378 5376 5375 5374 5373 5373 5372 5371 5371 5371 5370 5370 5370 5370 5370 5370 5370 5371 5371 5371
5414 5412 5409 5407 5405 5402 5400 5398 5396 5394 5393 5391 5389 5387 5386 5384 5382 5381 5379 5378 5376 5374 5373 5371 5370 5368 5367 5366 5365 5364 5363 5362 5362 5361 5361 5360 5360 5359 5359 5359 5359 5359 5359 5359
5405 5403 5400 5398 5396 5393 5391 5389 5387 5385 5383 5382 5380 5378 5377 5375 5374 5372 5371 5369 5368 5366 5364 5363 5361 5360 5359 5357 5356 5355 5354 5353 5353 5352 5351 5351 5350 5349 5349 5348 5348 5348 5348 5347
5396 5394 5392 5389 5387 5385 5382 5380 5378 5376 5374 5373 5371 5370 5368 5367 5365 5363 5362 5360 5359 5357 5356 5354 5353 5352 5350 5349 5348 5346 5345 5344 5343 5342 5342 5341 5340 5339 5338 5338 5337 5337 5336 5336
5387 5385 5383 5381 5379 5377 5374 5372 5370 5368 5366 5364 5363 5361 5359 5357 5356 5354 5353 5351 5350 5348 5347 5346 5344 5343 5341 5340 5339 5337 5336 5335 5334 5333 5332 5331 5330 5329 5328 5327 5327 5326 5326 5325
5379 5377 5375 5373 5371 5368 5366 5364 5362 5360 5358 5356 5354 5352 5351 5349 5347 5345 5344 5343 5341 5339 5338 5337 5335 5334 5332 5331 5330 5328 5327 5326 5325 5323 5322 5321 5320 5319 5318 5317 5316 5316 5315 5315
5370 5368 5366 5364 5362 5360 5358 5356 5354 5352 5350 5348 5346 5344 5342 5340 5338 5337 5335 5333 5332 5330 5329 5327 5326 5324 5323 5321 5320 5319 5318 5317 5316 5314 5313 5312 5310 5309 5309 5308 5307 5306 5305 5304
5361 5359 5357 5355 5353 5351 5349 5347 5346 5344 5342 5340 5338 5336 5334 5332 5330 5328 5326 5324 5322 5321 5319 5317 5316 5314 5313 5312 5311 5310 5309 5308 5306 5305 5304 5302 5301 5300 5299 5298 5297 5296 5295 5294
5352 5350 5348 5346 5344 5343 5341 5339 5337 5335 5333 5331 5329 5327 5325 5323 5321 5319 5317 5315 5313 5311 5309 5308 5306 5305 5304 5302 5302 5301 5299 5298 5297 5295 5294 5293 5292 5290 5289 5288 5287 5286 5285 5284
5344 5341 5339 5337 5336 5334 5332 5330 5328 5326 5324 5322 5320 5318 5316 5314 5312 5310 5307 5305 5303 5302 5300 5298 5297 5295 5294 5293 5292 5291 5290 5288 5287 5286 5284 5283 5282 5280 5279 5278 5277 5276 5275 5274
5335 5333 5331 5329 5327 5325 5323 5321 5319 5317 5315 5313 5310 5308 5306 5304 5302 5300 5298 5296 5294 5292 5291 5289 5287 5286 5285 5283 5282 5281 5280 5278 5277 5276 5274 5273 5271 5270 5269 5267 5266 5265 5264 5263
5327 5325 5322 5320 5318 5316 5314 5312 5310 5307 5305 5303 5301 5299 5296 5294 5292 5291 5289 5287 5285 5283 5281 5280 5278 5276 5275 5274 5272 5271 5270 5268 5267 5265 5264 5262 5261 5259 5258 5257 5256 5255 5254 5252